[[{"header":{"parameterUnit":"m.s-1","parameterCategory":1,"la1":30.2991,"la2":30.254,"lo1":-89.0895,"lo2":-89.0444,"dy":0.0017,"dx":0.0017,"nx":28,"ny":28,"refTime":"2023-08-07T09:00:00:Z","depth":0,"parameterNumber":2,"parameterNumberName":"U-component_of_WINDS"},"data":[0,0,0,0,0,0,0,0,0,0,0,0,0,0,0,0,0,0,0,0,0,0,0,0,0,0,0,0,0,0,0,0,0,0,0,0,0,0,0,0,0,0,0,0,0,0,0,0,0,0,0,0,0,0,0,0,0,0,3.7693,3.7694,0,3.7785,3.7786,3.7787,3.7768,3.7766,3.7764,3.7763,3.7861,3.7865,3.7869,0,0,0,0,0,0,0,0,0,0,0,0,0,3.7504,3.7508,3.7693,3.7694,3.7695,3.7785,3.7786,3.7787,3.7768,3.7766,3.7764,3.7762,3.7859,3.7864,3.7869,0,0,0,0,0,0,0,0,0,0,0,0,0,3.759,3.7509,3.7693,3.7696,3.7698,3.7785,3.7786,3.7788,3.7768,3.7766,3.7763,3.7761,3.7858,3.7864,3.787,3.796,0,0,3.7889,3.7892,0,0,0,0,0,0,0,0,3.7586,3.7597,3.7695,3.7696,3.7698,3.7762,3.7756,3.7846,3.7769,3.7742,3.7763,3.776,3.783,3.7839,3.7862,3.7965,3.7969,3.789,3.7894,3.7896,3.7898,0,0,0,0,0,0,0,3.758,3.7593,3.773,3.7696,3.7698,3.7695,3.7704,3.7773,3.7799,3.7744,3.7743,3.7754,3.7831,3.7856,3.7864,3.7971,3.789,3.7895,3.7899,3.7901,3.8154,3.8156,0,0,0,0,0,0,3.7572,3.7589,3.7727,3.7732,3.7634,3.77,3.7711,3.7744,3.7798,3.7804,3.7756,3.7752,3.7846,3.7856,3.7867,3.7977,3.7896,3.7902,3.7906,3.8151,3.8154,3.8157,0,0,0,0,0,0,3.7568,3.7584,3.7723,3.766,3.7677,3.7706,3.7744,3.7747,3.7772,3.7807,3.7812,3.7776,3.7844,3.7858,3.7937,3.798,3.7905,3.7911,3.8147,3.8152,3.8156,3.8196,0,0,0,0,0,0,3.7562,3.7583,3.7617,3.7661,3.7681,3.779,3.7747,3.7751,3.7783,3.7779,3.7828,3.7833,3.7843,3.7928,3.7943,3.7987,3.7916,3.8144,3.8149,3.8154,3.8191,3.8201,3.821,0,0,0,0,0,3.7556,3.7625,3.7618,3.7635,3.7723,3.7793,3.7804,3.7813,3.7786,3.7821,3.7844,3.7832,3.7973,3.7936,3.7953,3.8,3.8141,3.8148,3.8154,3.8187,3.8199,3.821,0,0,0,0,0,0,3.7586,3.7631,3.7624,3.7709,3.7747,3.7789,3.7833,3.7826,3.7873,3.7868,3.7879,3.789,3.797,3.7993,3.7951,3.809,3.8053,3.8064,3.8072,3.8084,3.8094,3.8086,3.7921,0,0,0,0,0,3.7602,3.7653,3.7691,3.7762,3.7782,3.7804,3.7835,3.7838,3.7879,3.7895,3.7923,3.7964,3.8017,3.8052,3.8103,3.8195,3.8205,3.8235,3.8245,3.8252,3.8261,3.8311,3.8325,3.8179,3.8179,3.8179,0,0,3.7636,3.7668,3.7699,3.7769,3.7799,3.7853,3.7818,3.7876,3.7917,3.7904,3.798,3.8003,3.8049,3.8134,3.8173,3.8156,3.8304,3.8261,3.8266,3.8271,3.8319,3.8333,3.8346,3.8183,3.8183,3.8182,0,0,3.7727,3.7755,3.7818,3.7849,3.7894,3.7909,3.7924,3.7968,3.7982,3.8058,3.805,3.8099,3.8191,3.8224,3.8253,3.8357,3.8348,3.8374,3.8423,3.8472,3.8483,3.8494,3.8531,3.8544,3.8382,3.8382,3.8382,0,3.7764,3.7844,3.7852,3.7911,3.7943,3.7933,3.7997,3.8027,3.8087,3.811,3.8089,3.8204,3.8234,3.8328,3.8353,3.8377,3.8395,3.8367,3.8481,3.8491,3.8501,3.8536,3.855,3.8385,3.8385,3.8385,3.8384,0,3.7888,3.7944,3.7989,3.8046,3.8083,3.8145,3.8163,3.82,3.8201,3.8218,3.8297,3.8333,3.8391,3.8414,3.8416,3.8508,3.8495,3.8478,3.8441,3.8517,3.8551,3.8565,3.8389,3.8388,3.8387,3.8387,0,0,3.7998,3.8059,3.8076,3.8102,3.8152,3.8196,3.8258,3.8314,3.8345,3.8388,3.8441,3.8519,3.8503,3.8536,3.8542,3.8585,3.8665,3.8562,3.8563,3.8579,3.8769,3.8781,3.8797,3.866,3.8663,3.8665,3.8765,0,3.8092,3.82,3.821,3.8307,3.8359,3.8352,3.8406,3.8443,3.8461,3.8509,3.853,3.8585,3.856,3.858,3.8622,3.8646,3.8703,3.8639,3.871,3.8712,3.8697,3.8814,3.8827,3.892,3.8778,3.878,3.8782,0,3.8216,3.8262,3.8364,3.8407,3.8429,3.8478,3.853,3.8576,3.8619,3.8629,3.8666,3.8667,3.8732,3.8693,3.8783,3.8739,3.8769,3.8786,3.8789,3.8795,3.8751,3.8823,3.8949,3.8963,3.8803,3.8801,3.88,0,3.8286,3.8373,3.8445,3.8468,3.852,3.8554,3.8578,3.8618,3.8652,3.8698,3.872,3.8774,3.8804,3.8846,3.8862,3.8832,3.8952,3.8914,3.8962,3.8962,3.8987,3.8985,3.9119,3.9008,3.9008,3.9007,3.9007,0,3.839,3.8453,3.8477,3.8521,3.8592,3.8603,3.8673,3.8696,3.8732,3.8781,3.8779,3.8825,3.8843,3.8894,3.8906,3.8979,3.8993,3.9004,3.9006,3.9003,3.9002,3.9022,3.9016,3.9011,3.901,3.9009,3.9009,0,3.8479,3.8498,3.8576,3.8619,3.8632,3.8682,3.8719,3.8763,3.8781,3.8844,3.8859,3.8888,3.8947,3.8967,3.9039,3.9047,3.9132,3.913,3.9117,3.9117,3.9165,3.916,3.9316,3.9337,3.9212,3.9214,3.9215,0,3.8543,3.8591,3.864,3.8672,3.8697,3.8749,3.8783,3.8797,3.8833,3.8885,3.8923,3.8981,3.9028,3.9123,3.9151,3.9206,3.9205,3.9256,3.9213,3.9208,3.9205,3.9201,3.9206,3.9263,3.9265,3.9266,3.9266,0,3.8655,3.8662,3.8711,3.8763,3.8803,3.8845,3.8886,3.8913,3.8933,3.8973,3.9033,3.9069,3.9143,3.9201,3.9257,3.9283,3.9278,3.928,3.9294,3.9291,3.9281,3.9286,3.9138,3.9276,3.9275,3.9274,3.9274,3.9273,3.8734,3.8776,3.8817,3.8871,3.8903,3.8941,3.8984,3.9007,3.9057,3.9116,3.9122,3.9187,3.923,3.9305,3.9333,3.9385,3.937,3.9391,3.9396,3.94,3.9404,3.9274,3.9395,3.9395,3.9395,3.9395,3.9394,0,3.8845,3.8871,3.8921,3.8977,3.902,3.9012,3.9057,3.9093,3.915,3.919,3.9236,3.9305,3.9362,3.9394,3.9451,3.9486,3.9486,3.9501,3.9497,3.9503,3.9413,3.9395,3.95,3.95,3.95,3.95,3.95,3.95,3.8908,3.8979,3.8991,3.9079,3.9105,3.9167,3.9193,3.9229,3.926,3.9337,3.9384,3.9405,3.9442,3.9502,3.9554,3.9562,3.9583,3.9599,3.9606,3.9521,3.951,3.9499,3.9482,3.9604,3.9604,3.9691,3.9692,3.9693]},{"header":{"parameterUnit":"m.s-1","parameterCategory":1,"la1":30.2991,"la2":30.254,"lo1":-89.0895,"lo2":-89.0444,"dy":0.0017,"dx":0.0017,"nx":28,"ny":28,"refTime":"2023-08-07T09:00:00:Z","depth":0,"parameterNumber":3,"parameterNumberName":"V-component_of_WINDS"},"data":[0,0,0,0,0,0,0,0,0,0,0,0,0,0,0,0,0,0,0,0,0,0,0,0,0,0,0,0,0,0,0,0,0,0,0,0,0,0,0,0,0,0,0,0,0,0,0,0,0,0,0,0,0,0,0,0,0,0,3.3481,3.3481,0,3.3521,3.3522,3.3522,3.3549,3.355,3.355,3.355,3.3589,3.359,3.3591,0,0,0,0,0,0,0,0,0,0,0,0,0,3.3422,3.3423,3.3481,3.3481,3.3482,3.3521,3.3522,3.3522,3.3549,3.355,3.355,3.355,3.3589,3.359,3.3591,0,0,0,0,0,0,0,0,0,0,0,0,0,3.3454,3.3423,3.3481,3.35,3.3502,3.3521,3.3522,3.3523,3.3549,3.355,3.355,3.355,3.3588,3.359,3.3591,3.3593,0,0,3.3595,3.3596,0,0,0,0,0,0,0,0,3.3452,3.3456,3.3497,3.3499,3.3501,3.3531,3.3516,3.3546,3.3549,3.3531,3.355,3.355,3.3569,3.3572,3.3579,3.3595,3.3597,3.3595,3.3596,3.3596,3.3597,0,0,0,0,0,0,0,3.345,3.3454,3.3497,3.3497,3.35,3.3505,3.351,3.3522,3.3548,3.3533,3.3535,3.354,3.3571,3.3578,3.358,3.3597,3.3595,3.3596,3.3597,3.3598,3.3615,3.3615,0,0,0,0,0,0,3.3445,3.3452,3.3495,3.3498,3.3477,3.3506,3.3512,3.3521,3.3548,3.3553,3.3539,3.3541,3.3575,3.3579,3.3582,3.3585,3.3596,3.3598,3.3598,3.3615,3.3615,3.3615,0,0,0,0,0,0,3.3443,3.3448,3.3494,3.3476,3.3482,3.3507,3.3517,3.3522,3.3529,3.3553,3.3557,3.3542,3.3576,3.358,3.359,3.3587,3.3598,3.3599,3.3616,3.3615,3.3615,3.3592,0,0,0,0,0,0,3.3442,3.3448,3.345,3.3475,3.3483,3.3502,3.3517,3.3522,3.3531,3.3534,3.3557,3.3561,3.3576,3.3588,3.3591,3.3589,3.36,3.3616,3.3616,3.3615,3.3593,3.3591,3.3589,0,0,0,0,0,3.3439,3.3442,3.345,3.3455,3.3486,3.3502,3.3506,3.3525,3.3531,3.3533,3.3548,3.356,3.3587,3.3589,3.3593,3.3591,3.3617,3.3616,3.3615,3.3594,3.3592,3.3589,0,0,0,0,0,0,3.3415,3.3446,3.3455,3.3466,3.3481,3.3507,3.351,3.3521,3.3535,3.3536,3.3558,3.3563,3.357,3.3581,3.3583,3.3593,3.3603,3.3603,3.3586,3.3583,3.3581,3.3578,3.3601,0,0,0,0,0,3.3411,3.3422,3.3448,3.3455,3.3463,3.3485,3.3492,3.3505,3.3522,3.3528,3.3544,3.3559,3.357,3.3577,3.3589,3.3595,3.36,3.3595,3.3593,3.3591,3.3591,3.3593,3.3591,3.3613,3.3613,3.3613,0,0,3.3402,3.3421,3.3427,3.3451,3.3464,3.3474,3.349,3.3501,3.3508,3.353,3.354,3.3552,3.357,3.3577,3.3581,3.3587,3.3586,3.359,3.3589,3.359,3.3592,3.359,3.3588,3.3612,3.3612,3.3612,0,0,3.3392,3.3408,3.3415,3.3428,3.3448,3.3462,3.3464,3.3487,3.3496,3.3507,3.3523,3.3531,3.3551,3.3562,3.3571,3.3563,3.3574,3.3566,3.3555,3.3556,3.3555,3.3553,3.3549,3.3548,3.3566,3.3566,3.3566,0,3.3379,3.3396,3.3416,3.3426,3.3435,3.3455,3.3461,3.3473,3.3495,3.3501,3.3507,3.3531,3.3544,3.3554,3.3552,3.3558,3.3559,3.3563,3.3554,3.3552,3.3551,3.3548,3.3546,3.3564,3.3564,3.3565,3.3565,0,3.3378,3.339,3.3392,3.3414,3.3424,3.3431,3.3451,3.3458,3.347,3.3483,3.3492,3.3509,3.3524,3.3527,3.3539,3.3538,3.3541,3.355,3.356,3.3548,3.3544,3.3543,3.3563,3.3563,3.3563,3.3564,0,0,3.3355,3.3387,3.3387,3.3397,3.3419,3.3428,3.3435,3.345,3.3455,3.347,3.3476,3.3491,3.3499,3.3509,3.3521,3.3523,3.3513,3.3532,3.3532,3.3527,3.3512,3.3505,3.3503,3.3521,3.3521,3.3521,3.351,0,3.3348,3.3364,3.3381,3.339,3.34,3.3418,3.3424,3.3438,3.345,3.3459,3.3472,3.3482,3.3493,3.3498,3.3501,3.3514,3.3511,3.3515,3.3526,3.3526,3.352,3.3501,3.3494,3.3483,3.3509,3.3509,3.3509,0,3.3342,3.3356,3.3366,3.3386,3.339,3.3396,3.341,3.3419,3.3434,3.3442,3.3452,3.3465,3.3472,3.3481,3.3491,3.3493,3.3498,3.3505,3.3505,3.3506,3.3516,3.3501,3.348,3.3478,3.3507,3.3507,3.3508,0,3.3323,3.3343,3.3352,3.3359,3.3383,3.3386,3.3396,3.3412,3.3419,3.3431,3.3435,3.3448,3.3454,3.3463,3.3479,3.3484,3.3486,3.3496,3.3492,3.3491,3.3491,3.3491,3.347,3.3495,3.3495,3.3495,3.3495,0,3.3313,3.3318,3.3343,3.3348,3.3354,3.3372,3.3377,3.3388,3.3402,3.3408,3.3424,3.343,3.345,3.3458,3.347,3.3475,3.3478,3.3484,3.3487,3.3482,3.3481,3.3485,3.3486,3.3495,3.3495,3.3495,3.3495,0,3.3293,3.331,3.332,3.3341,3.3347,3.335,3.3367,3.3372,3.3384,3.3392,3.3395,3.3414,3.3423,3.3439,3.3453,3.3461,3.3463,3.3469,3.3458,3.346,3.3454,3.3454,3.3435,3.3432,3.346,3.346,3.3459,0,3.3285,3.329,3.3311,3.3316,3.3326,3.3335,3.3342,3.336,3.3367,3.3383,3.3385,3.3396,3.3405,3.3419,3.3433,3.3444,3.3449,3.3441,3.3451,3.3445,3.3448,3.3447,3.3447,3.3439,3.3439,3.3439,3.3438,0,3.327,3.3277,3.3288,3.33,3.3308,3.3319,3.333,3.3333,3.3354,3.336,3.337,3.3377,3.3391,3.34,3.3412,3.3421,3.3432,3.3435,3.3434,3.3429,3.3422,3.3425,3.3452,3.3436,3.3436,3.3436,3.3436,3.3436,3.3255,3.3259,3.3274,3.3284,3.3294,3.3304,3.3309,3.3321,3.333,3.3343,3.3352,3.3361,3.3374,3.3391,3.3399,3.3405,3.3411,3.341,3.341,3.3409,3.3406,3.3422,3.3408,3.3408,3.3408,3.3408,3.3408,0,3.3239,3.3249,3.3259,3.3273,3.3281,3.3291,3.3303,3.3309,3.3316,3.3327,3.3336,3.3346,3.3355,3.3369,3.3379,3.3381,3.3386,3.3383,3.3383,3.3384,3.3402,3.3401,3.3378,3.3378,3.3378,3.3378,3.3378,3.3378,3.3232,3.3239,3.3247,3.3258,3.3268,3.3277,3.3283,3.3291,3.33,3.331,3.3318,3.3327,3.3339,3.335,3.3358,3.3362,3.3364,3.3359,3.3364,3.338,3.3383,3.3386,3.3385,3.336,3.336,3.3346,3.3346,3.3346]}]]